| time (UTC) | temp C | wind direction | speed KPH | gust KPH | rain 1hr cm | rain 24hr cm | rain mn cm | humidity % | barometer mb |
| 20260506162324 | 16 | 142 | 0.0 | 3.2 | 0.10 | 0.10 | 0.10 | 89 | 1008.2 |
| 20260506161820 | 17 | 147 | 0.0 | 1.6 | 0.10 | 0.10 | 0.10 | 88 | 1008.4 |
| 20260506161317 | 17 | 163 | 0.0 | 1.6 | 0.08 | 0.08 | 0.08 | 88 | 1008.4 |
| 20260506160834 | 17 | 163 | 0.0 | 1.6 | 0.08 | 0.08 | 0.08 | 87 | 1008.4 |
| 20260506160349 | 17 | 134 | 0.0 | 1.6 | 0.05 | 0.05 | 0.05 | 86 | 1008.4 |
| 20260506155825 | 17 | 134 | 0.0 | 1.6 | 0.03 | 0.03 | 0.03 | 85 | 1008.6 |
| 20260506155322 | 17 | 198 | 0.0 | 1.6 | 0.03 | 0.03 | 0.03 | 84 | 1008.7 |
| 20260506154822 | 17 | 169 | 0.0 | 1.6 | 0.03 | 0.03 | 0.03 | 84 | 1008.8 |
| 20260506154319 | 18 | 160 | 0.0 | 1.6 | 0.03 | 0.03 | 0.03 | 83 | 1008.7 |
| 20260506153815 | 18 | 5 | 0.0 | 3.2 | 0.00 | 0.00 | 0.00 | 82 | 1008.7 |
| 20260506153351 | 18 | 313 | 1.6 | 3.2 | 0.00 | 0.00 | 0.00 | 82 | 1008.5 |
| 20260506152826 | 18 | 98 | 0.0 | 3.2 | 0.00 | 0.00 | 0.00 | 81 | 1008.3 |
| 20260506152343 | 18 | 120 | 0.0 | 4.8 | 0.00 | 0.00 | 0.00 | 80 | 1008.6 |
| 20260506151818 | 18 | 245 | 0.0 | 3.2 | 0.00 | 0.00 | 0.00 | 79 | 1008.5 |
| 20260506151315 | 18 | 176 | 0.0 | 4.8 | 0.00 | 0.00 | 0.00 | 77 | 1008.5 |
| 20260506150832 | 18 | 113 | 0.0 | 4.8 | 0.00 | 0.00 | 0.00 | 75 | 1008.6 |
| 20260506150312 | 19 | 169 | 0.0 | 3.2 | 0.00 | 0.00 | 0.00 | 73 | 1008.7 |
| 20260506145828 | 19 | 66 | 1.6 | 3.2 | 0.00 | 0.00 | 0.00 | 72 | 1008.7 |
| 20260506145323 | 19 | 139 | 1.6 | 9.7 | 0.00 | 0.00 | 0.00 | 72 | 1008.7 |
| 20260506144821 | 19 | 89 | 1.6 | 9.7 | 0.00 | 0.00 | 0.00 | 71 | 1008.7 |
| 20260506144316 | 19 | 147 | 1.6 | 4.8 | 0.00 | 0.00 | 0.00 | 71 | 1008.7 |
| 20260506143813 | 20 | 192 | 1.6 | 4.8 | 0.00 | 0.00 | 0.00 | 71 | 1008.7 |
| 20260506143350 | 20 | 144 | 1.6 | 3.2 | 0.00 | 0.00 | 0.00 | 71 | 1008.7 |
| 20260506142824 | 20 | 160 | 1.6 | 9.7 | 0.00 | 0.00 | 0.00 | 71 | 1008.7 |
| 20260506142325 | 20 | 300 | 0.0 | 9.7 | 0.00 | 0.00 | 0.00 | 71 | 1008.6 |
| 20260506141821 | 19 | 144 | 1.6 | 8.0 | 0.00 | 0.00 | 0.00 | 72 | 1008.5 |
| 20260506141338 | 19 | 351 | 1.6 | 8.0 | 0.00 | 0.00 | 0.00 | 71 | 1008.7 |
| 20260506140813 | 19 | 23 | 0.0 | 4.8 | 0.00 | 0.00 | 0.00 | 72 | 1008.6 |
| 20260506140330 | 19 | 51 | 0.0 | 8.0 | 0.00 | 0.00 | 0.00 | 72 | 1008.7 |
| 20260506135827 | 19 | 259 | 3.2 | 8.0 | 0.00 | 0.00 | 0.00 | 71 | 1008.3 |
| 20260506135323 | 19 | 126 | 3.2 | 9.7 | 0.00 | 0.00 | 0.00 | 71 | 1008.5 |
| 20260506134822 | 19 | 15 | 1.6 | 11.3 | 0.00 | 0.00 | 0.00 | 71 | 1008.8 |
| 20260506134320 | 19 | 111 | 4.8 | 11.3 | 0.00 | 0.00 | 0.00 | 71 | 1008.8 |
| 20260506133816 | 19 | 160 | 1.6 | 9.7 | 0.00 | 0.00 | 0.00 | 72 | 1008.8 |
| 20260506133313 | 19 | 318 | 3.2 | 14.5 | 0.00 | 0.00 | 0.00 | 72 | 1008.8 |
| 20260506132828 | 19 | 140 | 1.6 | 14.5 | 0.00 | 0.00 | 0.00 | 72 | 1008.9 |
| 20260506132325 | 19 | 30 | 0.0 | 6.4 | 0.00 | 0.00 | 0.00 | 73 | 1009.0 |
| 20260506131822 | 18 | 108 | 1.6 | 8.0 | 0.00 | 0.00 | 0.00 | 72 | 1008.8 |
| 20260506131322 | 18 | 93 | 1.6 | 8.0 | 0.00 | 0.00 | 0.00 | 73 | 1008.8 |
| 20260506130838 | 18 | 130 | 1.6 | 8.0 | 0.00 | 0.00 | 0.00 | 74 | 1008.9 |
| 20260506130314 | 18 | 188 | 3.2 | 8.0 | 0.00 | 0.00 | 0.00 | 75 | 1008.9 |
| 20260506125828 | 18 | 21 | 1.6 | 4.8 | 0.00 | 0.00 | 0.00 | 75 | 1008.9 |
| 20260506125325 | 18 | 108 | 1.6 | 11.3 | 0.00 | 0.00 | 0.00 | 75 | 1008.8 |
| 20260506124821 | 18 | 195 | 0.0 | 8.0 | 0.00 | 0.00 | 0.00 | 75 | 1008.7 |
| 20260506124339 | 18 | 109 | 1.6 | 4.8 | 0.00 | 0.00 | 0.00 | 75 | 1008.4 |
| 20260506123814 | 18 | 200 | 0.0 | 4.8 | 0.00 | 0.00 | 0.00 | 75 | 1008.3 |
| 20260506123315 | 18 | 107 | 0.0 | 4.8 | 0.00 | 0.00 | 0.00 | 76 | 1008.4 |
| 20260506122812 | 18 | 131 | 1.6 | 3.2 | 0.00 | 0.00 | 0.00 | 76 | 1008.6 |
| 20260506122327 | 18 | 178 | 0.0 | 3.2 | 0.00 | 0.00 | 0.00 | 76 | 1008.6 |
| 20260506121824 | 18 | 109 | 0.0 | 3.2 | 0.00 | 0.00 | 0.00 | 76 | 1008.6 |
| 20260506121319 | 17 | 183 | 0.0 | 3.2 | 0.00 | 0.00 | 0.00 | 77 | 1008.7 |
| 20260506120814 | 17 | 111 | 0.0 | 4.8 | 0.00 | 0.00 | 0.00 | 77 | 1008.6 |
| 20260506120311 | 17 | 175 | 0.0 | 4.8 | 0.00 | 0.00 | 0.00 | 77 | 1008.8 |
| 20260506115810 | 17 | 73 | 1.6 | 4.8 | 0.00 | 0.00 | 0.00 | 77 | 1008.8 |
| 20260506115327 | 17 | 146 | 1.6 | 6.4 | 0.00 | 0.00 | 0.00 | 77 | 1008.8 |
| 20260506114823 | 17 | 178 | 1.6 | 6.4 | 0.00 | 0.00 | 0.00 | 77 | 1008.9 |
| 20260506114318 | 17 | 132 | 0.0 | 12.9 | 0.00 | 0.00 | 0.00 | 77 | 1009.0 |
| 20260506113814 | 17 | 298 | 1.6 | 12.9 | 0.00 | 0.00 | 0.00 | 77 | 1008.8 |
| 20260506113311 | 17 | 195 | 1.6 | 4.8 | 0.00 | 0.00 | 0.00 | 77 | 1009.0 |
| 20260506112827 | 17 | 57 | 1.6 | 4.8 | 0.00 | 0.00 | 0.00 | 77 | 1008.8 |
| 20260506112324 | 17 | 197 | 1.6 | 6.4 | 0.00 | 0.00 | 0.00 | 77 | 1008.7 |
| 20260506111823 | 17 | 242 | 1.6 | 6.4 | 0.00 | 0.00 | 0.00 | 77 | 1008.8 |
| 20260506111319 | 17 | 118 | 0.0 | 3.2 | 0.00 | 0.00 | 0.00 | 77 | 1008.8 |
| 20260506110816 | 17 | 61 | 1.6 | 3.2 | 0.00 | 0.00 | 0.00 | 78 | 1008.8 |
| 20260506110311 | 17 | 110 | 1.6 | 6.4 | 0.00 | 0.00 | 0.00 | 78 | 1008.7 |
| 20260506105827 | 17 | 207 | 1.6 | 6.4 | 0.00 | 0.00 | 0.00 | 78 | 1008.8 |
| 20260506105323 | 17 | 189 | 0.0 | 3.2 | 0.00 | 0.00 | 0.00 | 79 | 1008.7 |
| 20260506104819 | 17 | 147 | 0.0 | 3.2 | 0.00 | 0.00 | 0.00 | 80 | 1008.6 |
| 20260506104319 | 17 | 162 | 0.0 | 3.2 | 0.00 | 0.00 | 0.00 | 80 | 1008.6 |
| 20260506103814 | 17 | 186 | 0.0 | 4.8 | 0.00 | 0.00 | 0.00 | 80 | 1008.6 |
| 20260506103311 | 17 | 113 | 1.6 | 4.8 | 0.00 | 0.00 | 0.00 | 80 | 1008.6 |
| 20260506102828 | 17 | 115 | 0.0 | 3.2 | 0.00 | 0.00 | 0.00 | 80 | 1008.7 |
| 20260506102323 | 17 | 134 | 0.0 | 4.8 | 0.00 | 0.00 | 0.00 | 80 | 1008.7 |
| 20260506101819 | 17 | 131 | 0.0 | 4.8 | 0.00 | 0.00 | 0.00 | 80 | 1008.6 |
| 20260506101314 | 17 | 193 | 1.6 | 4.8 | 0.00 | 0.00 | 0.00 | 80 | 1008.4 |
| 20260506100814 | 17 | 158 | 0.0 | 4.8 | 0.00 | 0.00 | 0.00 | 80 | 1008.6 |
| 20260506100310 | 17 | 148 | 0.0 | 4.8 | 0.00 | 0.00 | 0.00 | 80 | 1008.6 |
| 20260506095826 | 17 | 170 | 0.0 | 1.6 | 0.00 | 0.00 | 0.00 | 80 | 1008.5 |
| 20260506095322 | 17 | 144 | 0.0 | 1.6 | 0.00 | 0.00 | 0.00 | 80 | 1008.4 |
| 20260506094818 | 17 | 174 | 0.0 | 3.2 | 0.00 | 0.00 | 0.00 | 80 | 1008.4 |
| 20260506094313 | 17 | 167 | 0.0 | 4.8 | 0.00 | 0.00 | 0.00 | 80 | 1008.4 |
| 20260506093829 | 17 | 147 | 1.6 | 6.4 | 0.00 | 0.00 | 0.00 | 80 | 1008.3 |
| 20260506093330 | 17 | 151 | 1.6 | 4.8 | 0.00 | 0.00 | 0.00 | 80 | 1008.3 |
| 20260506092826 | 17 | 166 | 0.0 | 4.8 | 0.00 | 0.00 | 0.00 | 80 | 1008.4 |
| 20260506092323 | 17 | 142 | 0.0 | 1.6 | 0.00 | 0.00 | 0.00 | 80 | 1008.4 |
| 20260506091819 | 17 | 142 | 0.0 | 6.4 | 0.00 | 0.00 | 0.00 | 80 | 1008.5 |
| 20260506091314 | 17 | 167 | 0.0 | 3.2 | 0.00 | 0.00 | 0.00 | 80 | 1008.4 |
| 20260506090811 | 17 | 195 | 0.0 | 3.2 | 0.00 | 0.00 | 0.00 | 80 | 1008.6 |
| 20260506090327 | 17 | 155 | 0.0 | 6.4 | 0.00 | 0.00 | 0.00 | 79 | 1008.6 |
| 20260506085826 | 17 | 144 | 0.0 | 6.4 | 0.00 | 0.00 | 0.00 | 79 | 1008.6 |
| 20260506085323 | 17 | 36 | 1.6 | 4.8 | 0.00 | 0.00 | 0.00 | 80 | 1008.6 |
| 20260506084819 | 17 | 140 | 0.0 | 3.2 | 0.00 | 0.00 | 0.00 | 79 | 1008.6 |
| 20260506084315 | 17 | 138 | 0.0 | 3.2 | 0.00 | 0.00 | 0.00 | 79 | 1008.7 |
| 20260506083811 | 17 | 138 | 0.0 | 4.8 | 0.00 | 0.00 | 0.00 | 79 | 1008.7 |
| 20260506083328 | 17 | 178 | 1.6 | 4.8 | 0.00 | 0.00 | 0.00 | 79 | 1008.7 |
| 20260506082824 | 17 | 141 | 0.0 | 4.8 | 0.00 | 0.00 | 0.00 | 79 | 1008.7 |
| 20260506082325 | 17 | 95 | 1.6 | 4.8 | 0.00 | 0.00 | 0.00 | 78 | 1008.8 |
| 20260506081822 | 17 | 111 | 0.0 | 3.2 | 0.00 | 0.00 | 0.00 | 77 | 1008.7 |
| 20260506081316 | 17 | 184 | 0.0 | 1.6 | 0.00 | 0.00 | 0.00 | 77 | 1008.8 |
| 20260506080812 | 17 | 121 | 0.0 | 1.6 | 0.00 | 0.00 | 0.00 | 77 | 1008.8 |
| 20260506080329 | 17 | 120 | 0.0 | 3.2 | 0.00 | 0.00 | 0.00 | 77 | 1008.7 |
| 20260506073330 | 17 | 163 | 0.0 | 4.8 | 0.00 | 0.00 | 0.00 | 74 | 1008.6 |
| 20260506072827 | 17 | 134 | 0.0 | 4.8 | 0.00 | 0.00 | 0.00 | 74 | 1008.7 |
| 20260506072323 | 17 | 182 | 0.0 | 3.2 | 0.00 | 0.00 | 0.00 | 74 | 1008.7 |
| 20260506071818 | 18 | 148 | 0.0 | 3.2 | 0.00 | 0.00 | 0.00 | 73 | 1008.7 |
| 20260506071318 | 18 | 171 | 0.0 | 3.2 | 0.00 | 0.00 | 0.00 | 72 | 1008.7 |
| 20260506070814 | 18 | 164 | 1.6 | 3.2 | 0.00 | 0.00 | 0.00 | 72 | 1008.7 |
| 20260506070311 | 18 | 135 | 0.0 | 8.0 | 0.00 | 0.00 | 0.00 | 71 | 1008.8 |
| 20260506062325 | 18 | 140 | 1.6 | 4.8 | 0.00 | 0.00 | 0.00 | 69 | 1009.0 |
| 20260506061821 | 18 | 211 | 1.6 | 4.8 | 0.00 | 0.00 | 0.00 | 69 | 1008.9 |
| 20260506061316 | 18 | 175 | 1.6 | 4.8 | 0.00 | 0.00 | 0.00 | 69 | 1009.0 |
| 20260506060812 | 18 | 101 | 0.0 | 4.8 | 0.00 | 0.00 | 0.00 | 68 | 1009.0 |
| 20260506060312 | 18 | 100 | 1.6 | 4.8 | 0.00 | 0.00 | 0.00 | 68 | 1009.1 |
| 20260506051315 | 19 | 223 | 0.0 | 4.8 | 0.00 | 0.00 | 0.00 | 66 | 1009.5 |
| 20260506050811 | 19 | 344 | 0.0 | 4.8 | 0.00 | 0.00 | 0.00 | 65 | 1009.6 |
| 20260506050328 | 19 | 192 | 0.0 | 4.8 | 0.00 | 0.00 | 0.00 | 65 | 1009.6 |
| 20260506044821 | 19 | 171 | 0.0 | 4.8 | 0.00 | 0.00 | 0.00 | 65 | 1009.6 |
| 20260506044316 | 19 | 135 | 1.6 | 6.4 | 0.00 | 0.00 | 0.00 | 64 | 1009.7 |
| 20260506043812 | 19 | 214 | 0.0 | 4.8 | 0.00 | 0.00 | 0.00 | 64 | 1009.6 |
| 20260506043329 | 19 | 158 | 1.6 | 4.8 | 0.00 | 0.00 | 0.00 | 64 | 1009.6 |
| 20260506042823 | 19 | 134 | 0.0 | 4.8 | 0.00 | 0.00 | 0.00 | 64 | 1009.6 |
| 20260506042319 | 19 | 187 | 1.6 | 4.8 | 0.00 | 0.00 | 0.00 | 64 | 1009.7 |
| 20260506041815 | 19 | 150 | 1.6 | 4.8 | 0.00 | 0.00 | 0.00 | 63 | 1009.7 |
| 20260506041314 | 20 | 131 | 1.6 | 4.8 | 0.00 | 0.00 | 0.00 | 63 | 1009.6 |
| 20260506040830 | 20 | 156 | 0.0 | 4.8 | 0.00 | 0.00 | 0.00 | 63 | 1009.6 |
| 20260506040326 | 20 | 171 | 0.0 | 8.0 | 0.00 | 0.00 | 0.00 | 63 | 1009.6 |
| 20260506035822 | 20 | 140 | 1.6 | 8.0 | 0.00 | 0.00 | 0.00 | 63 | 1009.6 |
| 20260506035319 | 20 | 217 | 0.0 | 4.8 | 0.00 | 0.00 | 0.00 | 63 | 1009.6 |
| 20260506034816 | 20 | 171 | 0.0 | 8.0 | 0.00 | 0.00 | 0.00 | 63 | 1009.6 |
| 20260506034312 | 20 | 148 | 0.0 | 8.0 | 0.00 | 0.00 | 0.00 | 62 | 1009.7 |
| 20260506033811 | 20 | 159 | 1.6 | 8.0 | 0.00 | 0.00 | 0.00 | 62 | 1009.6 |
| 20260506033327 | 20 | 116 | 1.6 | 8.0 | 0.00 | 0.00 | 0.00 | 62 | 1009.6 |
| 20260506032821 | 20 | 165 | 0.0 | 6.4 | 0.00 | 0.00 | 0.00 | 62 | 1009.5 |
| 20260506032317 | 20 | 155 | 1.6 | 4.8 | 0.00 | 0.00 | 0.00 | 61 | 1009.5 |
| 20260506031814 | 20 | 203 | 1.6 | 4.8 | 0.00 | 0.00 | 0.00 | 61 | 1009.5 |
| 20260506031329 | 20 | 119 | 1.6 | 6.4 | 0.00 | 0.00 | 0.00 | 61 | 1009.5 |
| 20260506030825 | 20 | 103 | 1.6 | 4.8 | 0.00 | 0.00 | 0.00 | 60 | 1009.6 |
| 20260506030325 | 20 | 117 | 0.0 | 6.4 | 0.00 | 0.00 | 0.00 | 60 | 1009.5 |
| 20260506025820 | 20 | 92 | 0.0 | 6.4 | 0.00 | 0.00 | 0.00 | 59 | 1009.5 |
| 20260506025316 | 21 | 188 | 1.6 | 9.7 | 0.00 | 0.00 | 0.00 | 59 | 1009.4 |
| 20260506024812 | 21 | 197 | 1.6 | 6.4 | 0.00 | 0.00 | 0.00 | 58 | 1009.3 |
| 20260506024329 | 21 | 142 | 1.6 | 6.4 | 0.00 | 0.00 | 0.00 | 57 | 1009.3 |
| 20260506023825 | 21 | 178 | 1.6 | 9.7 | 0.00 | 0.00 | 0.00 | 57 | 1009.4 |
| 20260506023322 | 21 | 198 | 3.2 | 9.7 | 0.00 | 0.00 | 0.00 | 56 | 1009.2 |
| 20260506022821 | 21 | 146 | 1.6 | 6.4 | 0.00 | 0.00 | 0.00 | 55 | 1009.4 |
| 20260506022317 | 21 | 161 | 1.6 | 8.0 | 0.00 | 0.00 | 0.00 | 55 | 1009.2 |
| 20260506021812 | 21 | 91 | 1.6 | 6.4 | 0.00 | 0.00 | 0.00 | 54 | 1009.4 |
| 20260506021328 | 21 | 205 | 1.6 | 8.0 | 0.00 | 0.00 | 0.00 | 53 | 1009.2 |
| 20260506020825 | 21 | 207 | 3.2 | 8.0 | 0.00 | 0.00 | 0.00 | 53 | 1009.1 |
| 20260506020321 | 21 | 213 | 1.6 | 6.4 | 0.00 | 0.00 | 0.00 | 52 | 1009.1 |
| 20260506015817 | 22 | 250 | 1.6 | 6.4 | 0.00 | 0.00 | 0.00 | 50 | 1009.1 |
| 20260506015318 | 22 | 137 | 0.0 | 4.8 | 0.00 | 0.00 | 0.00 | 50 | 1009.1 |
| 20260506014814 | 22 | 212 | 0.0 | 6.4 | 0.00 | 0.00 | 0.00 | 49 | 1009.0 |
| 20260506014330 | 22 | 196 | 1.6 | 6.4 | 0.00 | 0.00 | 0.00 | 49 | 1009.0 |
| 20260506013827 | 22 | 163 | 1.6 | 8.0 | 0.00 | 0.00 | 0.00 | 49 | 1009.0 |
| 20260506013323 | 22 | 162 | 0.0 | 11.3 | 0.00 | 0.00 | 0.00 | 49 | 1009.1 |
| 20260506012818 | 22 | 163 | 3.2 | 11.3 | 0.00 | 0.00 | 0.00 | 48 | 1009.0 |
| 20260506012314 | 22 | 136 | 0.0 | 0.0 | 0.00 | 0.00 | 0.00 | 48 | 1008.8 |
| 20260506011815 | 22 | 139 | 0.0 | 3.2 | 0.00 | 0.00 | 0.00 | 48 | 1008.8 |
| 20260506011329 | 22 | 186 | 1.6 | 3.2 | 0.00 | 0.00 | 0.00 | 48 | 1008.7 |
| 20260506010825 | 22 | 132 | 0.0 | 4.8 | 0.00 | 0.00 | 0.00 | 47 | 1008.8 |
| 20260506010322 | 22 | 169 | 1.6 | 4.8 | 0.00 | 0.00 | 0.00 | 47 | 1008.7 |
| 20260506005819 | 22 | 115 | 0.0 | 8.0 | 0.00 | 0.00 | 0.00 | 47 | 1008.7 |
| 20260506005315 | 23 | 163 | 3.2 | 8.0 | 0.00 | 0.00 | 0.00 | 47 | 1008.5 |
| 20260506004812 | 23 | 214 | 0.0 | 6.4 | 0.00 | 0.00 | 0.00 | 46 | 1008.6 |
| 20260506004311 | 23 | 157 | 0.0 | 4.8 | 0.00 | 0.00 | 0.00 | 46 | 1008.4 |
| 20260506003827 | 23 | 220 | 1.6 | 4.8 | 0.00 | 0.00 | 0.00 | 45 | 1008.3 |
| 20260506003324 | 23 | 161 | 1.6 | 3.2 | 0.00 | 0.00 | 0.00 | 44 | 1008.3 |
| 20260506002819 | 23 | 156 | 0.0 | 4.8 | 0.00 | 0.00 | 0.00 | 43 | 1008.2 |
| 20260506002316 | 23 | 156 | 0.0 | 6.4 | 0.00 | 0.00 | 0.00 | 42 | 1008.3 |
| 20260506001813 | 23 | 167 | 0.0 | 6.4 | 0.00 | 0.00 | 0.00 | 42 | 1008.1 |
| 20260506001327 | 23 | 150 | 0.0 | 0.0 | 0.00 | 0.00 | 0.00 | 41 | 1008.0 |
| 20260506000823 | 23 | 188 | 0.0 | 1.6 | 0.00 | 0.00 | 0.00 | 40 | 1008.0 |
| 20260506000324 | 23 | 191 | 0.0 | 1.6 | 0.00 | 0.00 | 0.00 | 41 | 1007.9 |
| 20260505235820 | 23 | 153 | 0.0 | 1.6 | 0.00 | 0.00 | 0.00 | 40 | 1008.0 |
| 20260505235316 | 24 | 200 | 0.0 | 3.2 | 0.00 | 0.00 | 0.00 | 39 | 1008.0 |
| 20260505234813 | 24 | 131 | 0.0 | 4.8 | 0.00 | 0.00 | 0.00 | 39 | 1007.9 |
| 20260505234327 | 24 | 194 | 1.6 | 4.8 | 0.00 | 0.00 | 0.00 | 38 | 1007.9 |
| 20260505233824 | 25 | 175 | 1.6 | 8.0 | 0.00 | 0.00 | 0.00 | 38 | 1007.9 |
| 20260505233321 | 25 | 121 | 3.2 | 8.0 | 0.00 | 0.00 | 0.00 | 37 | 1007.9 |
| 20260505232822 | 25 | 178 | 0.0 | 4.8 | 0.00 | 0.00 | 0.00 | 38 | 1007.8 |
| 20260505232318 | 25 | 284 | 0.0 | 9.7 | 0.00 | 0.00 | 0.00 | 37 | 1007.8 |
| 20260505231814 | 25 | 159 | 1.6 | 9.7 | 0.00 | 0.00 | 0.00 | 37 | 1007.7 |
| 20260505231330 | 25 | 190 | 1.6 | 11.3 | 0.00 | 0.00 | 0.00 | 36 | 1007.7 |
| 20260505230826 | 25 | 194 | 3.2 | 11.3 | 0.00 | 0.00 | 0.00 | 36 | 1007.6 |
| 20260505230323 | 25 | 113 | 1.6 | 11.3 | 0.00 | 0.00 | 0.00 | 36 | 1007.6 |
| 20260505225818 | 25 | 98 | 3.2 | 8.0 | 0.00 | 0.00 | 0.00 | 35 | 1007.5 |
| 20260505225319 | 25 | 165 | 3.2 | 8.0 | 0.00 | 0.00 | 0.00 | 35 | 1007.5 |
| 20260505224816 | 25 | 132 | 1.6 | 9.7 | 0.00 | 0.00 | 0.00 | 36 | 1007.4 |
| 20260505224312 | 25 | 272 | 1.6 | 9.7 | 0.00 | 0.00 | 0.00 | 34 | 1007.4 |
| 20260505223828 | 25 | 355 | 1.6 | 9.7 | 0.00 | 0.00 | 0.00 | 35 | 1007.4 |
| 20260505223324 | 26 | 22 | 1.6 | 12.9 | 0.00 | 0.00 | 0.00 | 34 | 1007.3 |
| 20260505222820 | 26 | 192 | 4.8 | 12.9 | 0.00 | 0.00 | 0.00 | 34 | 1007.3 |
| 20260505222315 | 26 | 200 | 3.2 | 12.9 | 0.00 | 0.00 | 0.00 | 33 | 1007.3 |
| 20260505221816 | 26 | 171 | 3.2 | 12.9 | 0.00 | 0.00 | 0.00 | 34 | 1007.4 |
| 20260505221312 | 26 | 26 | 3.2 | 12.9 | 0.00 | 0.00 | 0.00 | 33 | 1007.4 |
| 20260505220828 | 26 | 194 | 1.6 | 11.3 | 0.00 | 0.00 | 0.00 | 34 | 1007.4 |
| 20260505220325 | 26 | 134 | 3.2 | 11.3 | 0.00 | 0.00 | 0.00 | 33 | 1007.3 |
| 20260505215821 | 26 | 62 | 0.0 | 6.4 | 0.00 | 0.00 | 0.00 | 33 | 1007.3 |
| 20260505215317 | 26 | 231 | 0.0 | 8.0 | 0.00 | 0.00 | 0.00 | 32 | 1007.3 |
| 20260505214813 | 26 | 333 | 3.2 | 9.7 | 0.00 | 0.00 | 0.00 | 32 | 1007.2 |
| 20260505214313 | 26 | 73 | 1.6 | 29.0 | 0.00 | 0.00 | 0.00 | 32 | 1007.2 |
| 20260505213830 | 26 | 5 | 6.4 | 29.0 | 0.00 | 0.00 | 0.00 | 32 | 1007.1 |
| 20260505213327 | 26 | 26 | 1.6 | 16.1 | 0.00 | 0.00 | 0.00 | 31 | 1007.1 |
| 20260505212821 | 26 | 205 | 6.4 | 16.1 | 0.00 | 0.00 | 0.00 | 30 | 1006.9 |
| 20260505212318 | 26 | 166 | 4.8 | 16.1 | 0.00 | 0.00 | 0.00 | 30 | 1007.0 |
| 20260505211814 | 26 | 207 | 1.6 | 9.7 | 0.00 | 0.00 | 0.00 | 30 | 1006.8 |
| 20260505211328 | 26 | 111 | 3.2 | 11.3 | 0.00 | 0.00 | 0.00 | 30 | 1006.8 |
| 20260505210829 | 27 | 283 | 3.2 | 8.0 | 0.00 | 0.00 | 0.00 | 31 | 1006.9 |
| 20260505210325 | 27 | 126 | 1.6 | 11.3 | 0.00 | 0.00 | 0.00 | 31 | 1006.9 |
| 20260505205821 | 28 | 298 | 1.6 | 11.3 | 0.00 | 0.00 | 0.00 | 32 | 1006.9 |
| 20260505205318 | 28 | 228 | 3.2 | 12.9 | 0.00 | 0.00 | 0.00 | 31 | 1006.7 |
| 20260505204814 | 28 | 215 | 1.6 | 16.1 | 0.00 | 0.00 | 0.00 | 32 | 1006.6 |
| 20260505204329 | 28 | 274 | 4.8 | 16.1 | 0.00 | 0.00 | 0.00 | 33 | 1006.8 |
| 20260505203826 | 28 | 146 | 1.6 | 19.3 | 0.00 | 0.00 | 0.00 | 32 | 1006.8 |
| 20260505203326 | 28 | 235 | 3.2 | 19.3 | 0.00 | 0.00 | 0.00 | 33 | 1006.8 |
| 20260505202822 | 28 | 233 | 1.6 | 16.1 | 0.00 | 0.00 | 0.00 | 33 | 1007.0 |
| 20260505202318 | 28 | 219 | 4.8 | 16.1 | 0.00 | 0.00 | 0.00 | 33 | 1007.0 |
| 20260505201814 | 28 | 209 | 3.2 | 14.5 | 0.00 | 0.00 | 0.00 | 33 | 1007.0 |
| 20260505201329 | 28 | 136 | 4.8 | 14.5 | 0.00 | 0.00 | 0.00 | 33 | 1007.0 |
| 20260505200826 | 28 | 233 | 3.2 | 9.7 | 0.00 | 0.00 | 0.00 | 33 | 1006.9 |
| 20260505200321 | 28 | 194 | 1.6 | 8.0 | 0.00 | 0.00 | 0.00 | 33 | 1007.0 |
| 20260505195821 | 28 | 166 | 3.2 | 8.0 | 0.00 | 0.00 | 0.00 | 36 | 1007.0 |
| 20260505195318 | 27 | 202 | 3.2 | 14.5 | 0.00 | 0.00 | 0.00 | 35 | 1006.9 |
| 20260505194814 | 27 | 49 | 4.8 | 14.5 | 0.00 | 0.00 | 0.00 | 34 | 1007.2 |
| 20260505194329 | 28 | 115 | 4.8 | 14.5 | 0.00 | 0.00 | 0.00 | 32 | 1007.2 |
| 20260505193825 | 28 | 129 | 4.8 | 12.9 | 0.00 | 0.00 | 0.00 | 34 | 1007.1 |
| 20260505193322 | 28 | 60 | 3.2 | 14.5 | 0.00 | 0.00 | 0.00 | 32 | 1007.3 |
| 20260505192818 | 28 | 228 | 3.2 | 14.5 | 0.00 | 0.00 | 0.00 | 34 | 1007.0 |
| 20260505192319 | 28 | 59 | 1.6 | 14.5 | 0.00 | 0.00 | 0.00 | 33 | 1007.3 |
| 20260505191815 | 28 | 38 | 3.2 | 14.5 | 0.00 | 0.00 | 0.00 | 33 | 1007.4 |
| 20260505191311 | 28 | 283 | 4.8 | 17.7 | 0.00 | 0.00 | 0.00 | 34 | 1007.7 |
| 20260505190827 | 28 | 293 | 6.4 | 17.7 | 0.00 | 0.00 | 0.00 | 32 | 1007.5 |
| 20260505190323 | 28 | 105 | 1.6 | 17.7 | 0.00 | 0.00 | 0.00 | 35 | 1007.4 |
| 20260505185820 | 28 | 247 | 1.6 | 25.7 | 0.00 | 0.00 | 0.00 | 35 | 1007.4 |
| 20260505185316 | 28 | 293 | 4.8 | 16.1 | 0.00 | 0.00 | 0.00 | 35 | 1007.5 |
| 20260505184815 | 28 | 171 | 0.0 | 22.5 | 0.00 | 0.00 | 0.00 | 38 | 1007.6 |
| 20260505184311 | 28 | 198 | 3.2 | 8.0 | 0.00 | 0.00 | 0.00 | 35 | 1007.7 |
| 20260505183827 | 28 | 226 | 4.8 | 11.3 | 0.00 | 0.00 | 0.00 | 36 | 1007.8 |
| 20260505183324 | 28 | 221 | 3.2 | 8.0 | 0.00 | 0.00 | 0.00 | 36 | 1007.9 |
| 20260505182820 | 28 | 175 | 1.6 | 8.0 | 0.00 | 0.00 | 0.00 | 37 | 1007.9 |
| 20260505182317 | 28 | 207 | 3.2 | 8.0 | 0.00 | 0.00 | 0.00 | 34 | 1008.1 |
| 20260505181813 | 28 | 199 | 1.6 | 8.0 | 0.00 | 0.00 | 0.00 | 37 | 1008.0 |
| 20260505181313 | 28 | 71 | 3.2 | 6.4 | 0.00 | 0.00 | 0.00 | 36 | 1008.0 |
| 20260505180830 | 28 | 172 | 1.6 | 12.9 | 0.00 | 0.00 | 0.00 | 38 | 1008.0 |
| 20260505180326 | 28 | 191 | 3.2 | 12.9 | 0.00 | 0.00 | 0.00 | 37 | 1008.0 |
| 20260505175823 | 28 | 160 | 1.6 | 11.3 | 0.00 | 0.00 | 0.00 | 38 | 1008.1 |
| 20260505175319 | 27 | 187 | 3.2 | 9.7 | 0.00 | 0.00 | 0.00 | 40 | 1008.1 |
| 20260505174814 | 27 | 147 | 3.2 | 8.0 | 0.00 | 0.00 | 0.00 | 39 | 1008.3 |
| 20260505174310 | 27 | 160 | 3.2 | 9.7 | 0.00 | 0.00 | 0.00 | 38 | 1008.3 |
| 20260505173811 | 27 | 186 | 3.2 | 9.7 | 0.00 | 0.00 | 0.00 | 39 | 1008.3 |
| 20260505173328 | 27 | 121 | 3.2 | 11.3 | 0.00 | 0.00 | 0.00 | 41 | 1008.5 |
| 20260505172824 | 27 | 74 | 1.6 | 14.5 | 0.00 | 0.00 | 0.00 | 41 | 1008.6 |
| 20260505172320 | 27 | 218 | 6.4 | 14.5 | 0.00 | 0.00 | 0.00 | 41 | 1008.5 |
| 20260505171816 | 27 | 154 | 1.6 | 8.0 | 0.00 | 0.00 | 0.00 | 42 | 1008.6 |
| 20260505171312 | 27 | 123 | 1.6 | 9.7 | 0.00 | 0.00 | 0.00 | 40 | 1008.7 |
| 20260505170829 | 27 | 130 | 1.6 | 9.7 | 0.00 | 0.00 | 0.00 | 42 | 1008.8 |
| 20260505170326 | 27 | 355 | 1.6 | 19.3 | 0.00 | 0.00 | 0.00 | 43 | 1008.8 |
| 20260505165826 | 27 | 40 | 4.8 | 19.3 | 0.00 | 0.00 | 0.00 | 41 | 1008.8 |
| 20260505165322 | 27 | 148 | 3.2 | 6.4 | 0.00 | 0.00 | 0.00 | 42 | 1008.9 |
| 20260505164819 | 27 | 118 | 1.6 | 6.4 | 0.00 | 0.00 | 0.00 | 42 | 1008.9 |
| 20260505164315 | 27 | 194 | 1.6 | 12.9 | 0.00 | 0.00 | 0.00 | 42 | 1009.1 |
| 20260505163811 | 27 | 180 | 1.6 | 12.9 | 0.00 | 0.00 | 0.00 | 44 | 1009.1 |
| 20260505163328 | 26 | 211 | 1.6 | 9.7 | 0.00 | 0.00 | 0.00 | 44 | 1009.1 |
| 20260505162823 | 26 | 122 | 3.2 | 9.7 | 0.00 | 0.00 | 0.00 | 45 | 1009.3 |